Showing default

IRIDIUM 102, 41920

Orbit data source: Space-Track

IRIDIUM 102, 41920 is a payload satellite owned by Iridium (US) in LEO that was launched on Sat, 14 Jan 2017 UTC via an FALCON 9 launch vehicle from the Air Force Western Test Range (AFWTR). Payload-class satellites include a variety of spacecraft equipped with specific instruments for various scientific and technological missions. These include communications satellites like Starlink; space stations such as the ISS; scientific satellites like the Hubble; Earth observation satellites from companies like Planet Labs, Umbra, and HawkEye 360; GPS; miniature CubeSats for education and research; and military/defense satellites.

Loading next visibility...
Identifier
41920, 2017-003D
Orbit
LEO
Last TLE update
13 hours ago
Origin
Manufacturer
OATK SSG Gilbert
Mission
Operational Commercial Communications
Bus & Motor
ELITEBUS, Unknown motor
Mass
860 kg wet, 700 kg dry
Launch date (UTC)
2017-01-14 (8 years ago)
Launch vehicle
FALCON 9
Launch site
Air Force Western Test Range (AFWTR)
Object type
Payload
Rocket body
Debris
Shape & HBR
Trap Box + 2 Pan, 9.4 m
Radar Cross Section
14.423 m², Large (>1 m²)

Expand to show TLE details & history

TLE from 13 hours ago
0 IRIDIUM 102
1 41920U 17003D   25183.58692391  .00000056  00000-0  12984-4 0  9998
2 41920  86.3962 234.4530 0002329  96.6201 263.5260 14.34217338443172
Epoch: 2025-07-02T14:05Z
TLE epoch observation values (Epoch: 2025-07-02T14:05:10.225Z)
Latitude
-0.00004°
Longitude
102.2945°
Altitude
780.908 km
Speed
7.463 km/s
True Right ascension
15h 37m 48s
True Declination
0° 00' 00"
Sunlit
Object was in full shadow at epoch
Visualization orbit readout
Latitude
-61.00909°
Longitude
-71.43738°
Altitude
802.629 km
Speed
7.45 km/s
Apparent Right ascension
03h 14m 50s
Apparent Declination
-51° 21' 44"
Sunlit
Object is in daylight
Visualization observer readout
Local Sidereal Time
14:40:45
Azimuth
204.518° SW
Elevation
-77.116°
Doppler factor
1
Orbital elements
Apogee altitude
776.299 km
Perigee altitude
772.967 km
Semi-major axis
7,152.77 km
Eccentricity
0.00023
Inclination
86.3962°
RAAN
234.453°
Arg. of periapsis
96.6201°
True anomaly
Unknown
Mean anomaly
263.526°
Eccentric anomaly
Unknown
Mean motion
3.58783 °/min
Orbital period
100.34 mins
BSTAR
0.000012984
Loading maneuver chart data...
Loading SW <> Apogee altitude chart data...
Loading historical data...
Loading historical data...
Loading historical data...
Loading historical data...
Loading historical data...
Loading historical data...
Loading historical data...

IRIDIUM 102 Visibility forecast

Observer location: undefined°, undefined°

Span
Click to sort rows by Start time (UTC) header in descending order
Start Az.
Max El. time (UTC)
Max El. Az.
Max El.
End time (UTC)
End Az.
9 mins2025-07-03 03:35:39.042Z161.528° S2025-07-03 03:39:39.042Z104.964° ESE38.168°2025-07-03 03:44:39.042Z13.573° NNE
4 mins2025-07-03 05:19:39.042Z264.85° W2025-07-03 05:20:39.042Z278.296° WNW15.979°2025-07-03 05:23:39.042Z317.159° NNW
8 mins2025-07-03 15:47:39.042Z347.975° N2025-07-03 15:51:39.042Z240.399° WSW41.544°2025-07-03 15:55:39.042Z190.934° SSW
|